STARLINK-6119 (56125 NORAD) Tracking and Keplerian Element Data

This shows tracking and keplerian element data for the satellite.

Feedback or suggestion? Click here.




ElementValue
Catalog56125
NameSTARLINK-6119
Epoch Orbit656
Epoch Day127.25001157
Epoch Year2023
RAAN33.7055
Inclination43.0018
Eccentricity0.000144
Argument of Perigee267.2748
Mean Anonmoly347.0266
Mean Motion15.48882985
Decay Rate0.00069212
L11 56125U 23046AK 23127.25001157 .00069212 00000+0 12477-2 0 9992
L22 56125 43.0018 33.7055 0001440 267.2748 347.0266 15.48882985 6568



Live tracking and technical data element details for STARLINK-6119 (NORAD 56125). STARLINK-6119 can be tracked NOW for your location showing map with azimuth and elevation plus other details from your city location.







IsCatalogInMostPopularTable: catalog: 56125, numindb: 3
Update: records affected: 1



GetName: 56125 STARLINK-6119

Hit Count: updated at: Sat, 03 Jun 2023 18:24:01 GMT